GW5798 Weather Reports


time (UTC)temp
F
wind
direction
speed
knots
gust
knots
rain 1hr
in
rain 24hr
in
rain mn
in
humidity
%
barometer
mb
20260502170110 71 250 0.9 5.2 0.00 1.64 0.00 57 1021.5
20260502164050 70 357 1.7 7.0 0.00 1.65 0.00 57 1021.5
20260502163040 69 337 0.9 2.6 0.00 1.66 0.00 61 1021.4
20260502162030 69 277 1.7 6.1 0.00 1.68 0.00 63 1021.4
20260502161020 68 219 1.7 3.5 0.00 1.71 0.00 64 1021.4
20260502160111 67 224 0.9 5.2 0.00 1.75 0.00 64 1021.3
20260502152111 66 119 0.9 3.5 0.00 1.88 0.00 70 1021.0
20260502151100 65 112 1.7 5.2 0.00 1.88 0.00 71 1021.2
20260502150111 64 37 1.7 8.7 0.00 1.88 0.00 72 1021.1
20260502130113 55 296 0.9 2.6 0.00 2.16 0.00 91 1020.0
20260502123043 53 292 0.0 1.7 0.00 2.22 0.00 95 1019.4
20260502122033 53 295 0.9 1.7 0.00 2.22 0.00 95 1019.3
20260502121023 52 298 0.0 1.7 0.00 2.23 0.00 95 1019.5
20260502120114 52 352 0.0 0.9 0.00 2.24 0.00 95 1019.2
20260502115104 52 0.0 0.0 0.00 2.24 0.00 95 1019.1
20260502114114 52 0.0 0.9 0.00 2.24 0.00 94 1019.0
20260502113044 53 323 0.0 0.9 0.00 2.25 0.00 94 1018.9
20260502112034 53 314 0.0 2.6 0.00 2.25 0.00 94 1018.8
20260502111024 53 329 0.0 1.7 0.00 2.25 0.00 93 1018.7
20260502110114 53 340 0.9 1.7 0.00 2.25 0.00 93 1018.5
20260502105104 53 346 0.0 0.9 0.00 2.25 0.00 92 1018.5
20260502104054 53 183 0.0 1.7 0.00 2.26 0.00 92 1018.4
20260502103044 54 328 0.0 0.9 0.00 2.27 0.00 92 1018.2
20260502102034 54 287 0.0 1.7 0.00 2.27 0.00 91 1018.1
20260502101025 54 0.0 1.7 0.00 2.28 0.00 91 1018.0
20260502100215 54 0.0 1.7 0.00 2.28 0.00 90 1017.9
20260502091045 55 121 1.7 6.1 0.00 2.59 0.00 87 1016.8
20260502090116 56 118 0.0 1.7 0.00 2.98 0.00 88 1016.7
20260502071027 55 115 0.0 1.7 0.00 3.19 0.00 93 1016.7
20260502070016 55 47 0.9 1.7 0.00 3.20 0.00 93 1016.8
20260502065107 56 345 0.0 1.7 0.00 3.20 0.00 93 1016.8
20260502064057 56 222 0.9 2.6 0.00 3.21 0.00 92 1016.7
20260502063047 56 28 0.9 2.6 0.00 3.22 0.00 93 1016.8
20260502062037 56 62 0.9 2.6 0.00 3.22 0.00 93 1016.5
20260502061028 56 264 0.0 2.6 0.00 3.22 0.00 94 1016.4
20260502060017 56 16 0.9 3.5 0.00 3.22 0.00 94 1016.6
20260502055108 56 82 0.9 5.2 0.00 3.22 0.00 95 1016.6
20260502054058 56 96 0.9 3.5 0.00 3.22 0.00 95 1016.4
20260502053048 56 85 1.7 7.0 0.00 3.23 0.00 95 1016.5
20260502052038 56 39 1.7 5.2 0.00 3.23 0.00 95 1016.4
20260502051048 56 194 0.9 6.1 0.00 3.24 0.00 95 1016.2
20260502050018 56 18 1.7 5.2 0.00 3.24 0.00 96 1016.1
20260502045109 56 160 0.9 3.5 0.00 3.25 3.24 96 1016.0
20260502044059 56 25 0.9 7.0 0.00 3.37 3.24 96 1015.9
20260502043050 56 186 0.9 5.2 0.00 3.47 3.24 96 1016.0
20260502042039 56 252 0.9 2.6 0.00 3.47 3.24 96 1016.2
20260502041029 56 113 0.9 5.2 0.00 3.47 3.24 96 1016.1
20260502040019 56 66 1.7 9.6 0.00 3.47 3.24 97 1016.0
20260502035130 56 184 0.9 5.2 0.00 3.47 3.24 97 1016.2
20260502034100 56 138 0.0 2.6 0.00 3.47 3.24 97 1016.2
20260502033049 56 335 0.9 6.1 0.00 3.47 3.24 97 1015.9
20260502032100 56 206 0.9 2.6 0.01 3.47 3.24 97 1015.6
20260502031029 56 169 0.9 5.2 0.01 3.47 3.24 97 1015.6
20260502030019 56 271 1.7 5.2 0.02 3.47 3.24 97 1015.4
20260502025110 56 339 0.9 5.2 0.03 3.47 3.24 97 1015.0
20260502024101 56 234 0.9 5.2 0.05 3.47 3.24 97 1014.7
20260502023051 57 307 0.9 3.5 0.09 3.47 3.24 97 1014.4
20260502022040 57 298 1.7 5.2 0.09 3.46 3.23 97 1014.2
20260502021030 57 140 2.6 7.8 0.10 3.46 3.23 97 1013.9
20260502020040 58 88 0.9 2.6 0.12 3.45 3.22 97 1014.1
20260502015111 58 236 0.9 1.7 0.15 3.44 3.21 97 1014.1
20260502014101 59 309 0.9 3.5 0.14 3.42 3.19 97 1013.8
20260502013051 59 296 0.9 5.2 0.11 3.38 3.15 97 1013.8
20260502012041 59 295 0.9 2.6 0.11 3.37 3.14 97 1013.8
20260502011031 59 175 0.0 1.7 0.13 3.36 3.13 97 1013.2
20260502010021 59 328 0.0 2.6 0.12 3.33 3.10 97 1013.1
20260502005112 59 1 1.7 5.2 0.12 3.29 3.06 97 1013.3
20260502004102 59 82 0.9 2.6 0.14 3.28 3.05 97 1014.2
20260502003052 59 301 0.9 6.1 0.17 3.27 3.04 97 1012.7
20260502002102 59 151 0.9 6.1 0.17 3.26 3.03 97 1012.1
20260502001032 59 44 1.7 6.1 0.15 3.23 3.00 97 1012.5
20260502000042 60 157 0.9 2.6 0.16 3.21 2.98 97 1012.6
20260501235113 60 252 0.9 3.5 0.23 3.17 2.94 97 1012.7
20260501234103 60 352 0.9 3.5 0.25 3.14 2.91 97 1013.4
20260501233053 60 239 1.7 3.5 0.21 3.10 2.87 97 1012.4
20260501232103 60 59 1.7 3.5 0.20 3.09 2.86 97 1011.2
20260501231032 60 27 2.6 7.0 0.19 3.08 2.85 97 1010.5
20260501230023 61 162 1.7 11.3 0.16 3.05 2.82 97 1011.1
20260501225113 61 53 0.9 5.2 0.05 2.94 2.71 97 1011.8
20260501224104 61 355 1.7 9.6 0.00 2.89 2.66 97 1011.2
20260501223053 61 60 4.3 14.8 0.00 2.89 2.66 97 1010.4
20260501222104 61 45 1.7 7.0 0.00 2.89 2.66 97 1010.4
20260501221034 62 44 1.7 9.6 0.02 2.89 2.66 97 1010.2
20260501220023 62 31 1.7 3.5 0.04 2.89 2.66 98 1010.4
20260501215134 62 90 1.7 5.2 0.05 2.89 2.66 98 1010.9
20260501214104 63 67 0.9 1.7 0.06 2.89 2.66 98 1011.3
20260501213114 63 93 1.7 5.2 0.07 2.89 2.66 98 1010.9
20260501212044 62 71 0.9 1.7 0.11 2.89 2.66 98 1011.7
20260501211034 62 150 0.9 2.6 0.14 2.87 2.64 98 1011.2
20260501210024 62 299 1.7 6.1 0.15 2.85 2.62 98 1010.8
20260501205115 62 285 0.0 3.5 0.16 2.84 2.61 98 1010.1
20260501204105 63 42 1.7 5.2 0.17 2.83 2.60 98 1010.1
20260501203055 63 41 0.9 2.6 0.18 2.82 2.59 98 1010.2
20260501202045 63 67 1.7 5.2 0.15 2.78 2.55 98 1010.2
20260501201035 63 276 0.0 3.5 0.11 2.73 2.50 98 1009.7
20260501200025 63 101 0.9 3.5 0.09 2.70 2.47 98 1009.5
20260501195116 63 83 0.9 3.5 0.26 2.68 2.45 98 1009.7
20260501194106 63 172 0.9 3.5 0.34 2.66 2.43 98 1009.8
20260501193116 63 136 0.9 1.7 0.33 2.64 2.41 98 1009.7
20260501192046 63 61 0.9 3.5 0.33 2.63 2.40 98 1009.7
20260501191115 63 114 0.9 2.6 0.50 2.62 2.39 98 1009.8
20260501190025 63 202 0.9 7.0 0.57 2.61 2.38 98 1009.8
20260501185117 63 192 0.0 1.7 0.41 2.42 2.19 98 1010.7
20260501184106 63 294 0.9 5.2 0.41 2.32 2.09 98 1009.7
20260501183056 63 51 0.0 6.1 0.46 2.31 2.08 98 1009.9
20260501182046 63 7 2.6 7.8 0.47 2.30 2.07 98 1008.8
20260501181036 63 64 0.9 3.5 0.29 2.12 1.89 97 1009.8
20260501180026 63 344 2.6 6.1 0.21 2.04 1.81 97 1009.1
20260501175017 63 260 1.7 5.2 0.19 2.01 1.78 97 1009.5
20260501174107 63 97 1.7 3.5 0.09 1.91 1.68 97 1009.9
20260501173057 63 297 0.9 1.7 0.04 1.85 1.62 97 1010.9